www.dot.state.il.us - /desenv/hwystds/rev211/Web DGNs/


[To Parent Directory]

Monday, March 08, 2010 10:31 AM 28981760 1_Rev211_AllHighwayStandards_DGN.exe
Friday, September 25, 2009 11:27 AM 439808 1_Rev211_Div000_DGN.exe
Friday, September 25, 2009 11:28 AM 490496 1_Rev211_Div200_DGN.exe
Friday, September 25, 2009 11:30 AM 148480 1_Rev211_Div300_DGN.exe
Friday, September 25, 2009 11:33 AM 4797440 1_Rev211_Div400_DGN.exe
Friday, September 25, 2009 11:34 AM 4073472 1_Rev211_Div500_DGN.exe
Monday, March 08, 2010 10:28 AM 10460672 1_Rev211_Div600_DGN.exe
Friday, September 25, 2009 11:37 AM 3769344 1_Rev211_Div700_DGN.exe
Friday, September 25, 2009 11:38 AM 3075584 1_Rev211_Div800_DGN.exe
Friday, September 25, 2009 11:39 AM 1806336 1_Rev211_DivBLR_DGN.exe
Friday, September 25, 2009 9:31 AM 368128 211-000001-05_StandardSymbolsAbbreviations&Patterns.dgn
Friday, September 25, 2009 9:31 AM 63488 211-001001-02_AreasOfReinfRebars.dgn
Friday, September 25, 2009 9:31 AM 67072 211-001006_DecimalOfInch&Foot.dgn
Friday, September 25, 2009 9:31 AM 69632 211-202001-01_EarthMedDitchCheck.dgn
Friday, September 25, 2009 10:25 AM 370176 211-280001-05_TempErosionCntrlSystems.dgn
Friday, September 25, 2009 9:31 AM 112128 211-285001-02_FabricFormedConcRevetmentMats.dgn
Friday, September 25, 2009 9:31 AM 140800 211-353001-04_PCCBseCseWithHMABind&SurfCses.dgn
Friday, September 25, 2009 9:31 AM 143872 211-406001-05_EntrRampTermFlexPvmt.dgn
Friday, September 25, 2009 9:31 AM 275968 211-406101-04_ExitRampTerminalFlexiblePvmt.dgn
Friday, September 25, 2009 9:31 AM 114688 211-406201-01_MailboxTurnout.dgn
Friday, September 25, 2009 9:31 AM 243712 211-420001-07_PavementJoints.dgn
Friday, September 25, 2009 9:31 AM 86528 211-420101-04_24ftJointedPCCPvmt.dgn
Friday, September 25, 2009 9:31 AM 120320 211-420106-04_36ftJointedPCCPvmt.dgn
Friday, September 25, 2009 9:31 AM 117760 211-420111-02_PCCPvmtRoundouts.dgn
Friday, September 25, 2009 9:32 AM 235520 211-420201-07_EntrRampTerm-PCCAdjToPCC.dgn
Friday, September 25, 2009 9:32 AM 241664 211-420206-08_EntrRampTerm-PCCAdjToCRC.dgn
Friday, September 25, 2009 9:32 AM 297472 211-420301-04_ExitRampTerm-PCCAdjToPCC.dgn
Friday, September 25, 2009 9:33 AM 304640 211-420306-06_ExitRampTerm-PCCAdjToCRC.dgn
Friday, September 25, 2009 10:25 AM 325120 211-420401-08_BridgeApproachPvmt.dgn
Friday, September 25, 2009 9:33 AM 115200 211-420501-04_PCCPvmt&PCCBseCseAdjToRRGradeXing.dgn
Friday, September 25, 2009 9:33 AM 96768 211-420601-05_24ftPCCPvmt.dgn
Friday, September 25, 2009 9:34 AM 86016 211-420701-02_PavementFabric.dgn
Friday, September 25, 2009 9:34 AM 75776 211-421001-02_BarReinfForCRCPvmt.dgn
Friday, September 25, 2009 9:34 AM 357376 211-421101-07_24ftCRCPvmt-wWideFlangeBeamTermJt.dgn
Friday, September 25, 2009 9:34 AM 349184 211-421106-07_36ftCRCPvmt-wWideFlangeBeamTermJt.dgn
Friday, September 25, 2009 9:34 AM 347136 211-421201-06_24ftCRCPvmt-wLugSys.dgn
Friday, September 25, 2009 9:34 AM 364032 211-421206-06_36ftCRCPvmt-wLugSys.dgn
Friday, September 25, 2009 9:34 AM 236032 211-424001-05_CurbRampsForSidewalk.dgn
Friday, September 25, 2009 9:34 AM 154624 211-442001-04_ClassAPatches.dgn
Friday, September 25, 2009 9:34 AM 309760 211-442101-07_ClassBPatches.dgn
Friday, September 25, 2009 9:34 AM 188928 211-442201-03_ClassC&DPatches.dgn
Friday, September 25, 2009 9:35 AM 126464 211-482001-02_HMAShldAdjToFlexPvmt.dgn
Friday, September 25, 2009 9:35 AM 72704 211-482006-03_HMAShldAdjToRigidPvmt.dgn
Friday, September 25, 2009 9:35 AM 158720 211-482011-03_HMAShldStrips(Shlds)wResurfOrWiden&ResurfProj.dgn
Friday, September 25, 2009 9:35 AM 145408 211-483001-04_PCCShld.dgn
Friday, September 25, 2009 9:35 AM 202240 211-509001-01_TubularThrieBeamRetrofitRailForBridge.dgn
Friday, September 25, 2009 9:35 AM 98304 211-515001-03_NamePlateForBridges.dgn
Friday, September 25, 2009 9:35 AM 75776 211-542001-02_ReinfConcEndSect-wParallelWngwalls12-48inDiaRtAngle.dgn
Friday, September 25, 2009 9:35 AM 91136 211-542101-02_ReinfConcEndSectForPipeCulv15-36inDiaRtAngle.dgn
Friday, September 25, 2009 9:35 AM 126976 211-542106-02_ReinfConcEndSectForPipeCulv42-60inDiaRtAngle.dgn
Friday, September 25, 2009 9:35 AM 138240 211-542111-02_ReinfConcEndSectForPipeCulv66-84inDiaRtAngle.dgn
Friday, September 25, 2009 9:35 AM 148992 211-542116-02_ReinfConcEndSectForMultPipeCulv15-36inDiaRtAngle.dgn
Friday, September 25, 2009 9:35 AM 161280 211-542121-02_ReinfConcEndSectForMultPipeCulv42-60inDiaRtAngle.dgn
Friday, September 25, 2009 9:35 AM 321024 211-542201-02_ReinfConcEndSectForPipeCulv15-36inDiaSkewed.dgn
Friday, September 25, 2009 9:35 AM 201728 211-542206-01_ReinfConcEndSectForPipeCulv42-60inDiaSkewed.dgn
Friday, September 25, 2009 9:35 AM 82944 211-542301-02_PrecastReinfConcFlaredEndSect.dgn
Friday, September 25, 2009 9:35 AM 82432 211-542306-02_PrecastReinfConcEllipticalFlaredEndSect.dgn
Friday, September 25, 2009 9:35 AM 229376 211-542311-01_GratingForConcFlaredEndSection24-54inPipe.dgn
Friday, September 25, 2009 9:35 AM 84992 211-542401-01_MetalEndSectForPipeCulv.dgn
Friday, September 25, 2009 9:35 AM 85504 211-542406-01_MetalEndSectForPipeArch.dgn
Friday, September 25, 2009 9:35 AM 196608 211-542501-02_InletBoxTypeA24in.dgn
Friday, September 25, 2009 9:35 AM 235520 211-542506-02_InletBoxTypeB24in.dgn
Friday, September 25, 2009 9:35 AM 230400 211-542511-02_InletBoxTypeC24in.dgn
Friday, September 25, 2009 9:35 AM 256512 211-542516-02_InletBoxTypeD24in.dgn
Friday, September 25, 2009 9:35 AM 261120 211-542521-02_InletBoxTypeE24in.dgn
Friday, September 25, 2009 9:35 AM 263168 211-542526-02_InletBoxTypeF24in.dgn
Friday, September 25, 2009 9:35 AM 245760 211-542531-03_InletBoxTypeG24in.dgn
Friday, September 25, 2009 10:25 AM 306176 211-542536-03_InletBoxTypeA36in.dgn
Friday, September 25, 2009 9:35 AM 291840 211-542541-02_InletBoxTypeA48in.dgn
Friday, September 25, 2009 9:35 AM 251392 211-542546-01_FlushInletBoxForMedian.dgn
Friday, September 25, 2009 10:25 AM 69120 211-542601-02_RCPipeElbow.dgn
Friday, September 25, 2009 9:35 AM 163840 211-542606-01_RCPipeTee.dgn
Friday, September 25, 2009 9:35 AM 218112 211-601001-03_SubSurfDrains.dgn
Friday, September 25, 2009 9:35 AM 70656 211-601101-01_ConcHdwForPipeDrain.dgn
Friday, September 25, 2009 9:35 AM 120320 211-602001-01_CatchBasin-TypeA.dgn
Friday, September 25, 2009 9:35 AM 168448 211-602006-02_CatchBasin-TypeB.dgn
Friday, September 25, 2009 9:35 AM 101888 211-602011-01_CatchBasin-TypeC.dgn
Friday, September 25, 2009 9:35 AM 157184 211-602016-01_CatchBasin-TypeD.dgn
Friday, September 25, 2009 9:35 AM 215040 211-602101-02_DrainStruc-Type1&2&3.dgn
Friday, September 25, 2009 9:35 AM 214528 211-602106-01_DrainStruc-Type4&5&6.dgn
Friday, September 25, 2009 9:35 AM 84992 211-602301-02_Inlet-TypeA.dgn
Friday, September 25, 2009 9:35 AM 136192 211-602306-02_Inlet-TypeB.dgn
Friday, September 25, 2009 9:35 AM 131072 211-602401-02_Manhole-TypeA.dgn
Friday, September 25, 2009 9:35 AM 113664 211-602406-03_Manhole-TypeA6ftDia.dgn
Friday, September 25, 2009 9:35 AM 138752 211-602411-01_Manhole-TypeA7ftDia.dgn
Friday, September 25, 2009 9:36 AM 139264 211-602416-01_Manhole-TypeA8ftDia.dgn
Friday, September 25, 2009 9:36 AM 139264 211-602421-01_Manhole-TypeA9ftDia.dgn
Friday, September 25, 2009 9:36 AM 115200 211-602501-01_ValveVault-TypeA.dgn
Friday, September 25, 2009 9:36 AM 92672 211-602601-02_PrecastReinfConcFlatSlabTop.dgn
Friday, September 25, 2009 9:36 AM 93184 211-602701-02_ManholeSteps.dgn
Friday, September 25, 2009 9:36 AM 86528 211-604001-03_Frame&Lids-Type1.dgn
Friday, September 25, 2009 9:36 AM 122880 211-604006-04_Frame&GrateType3.dgn
Friday, September 25, 2009 9:36 AM 134144 211-604011-04_Frame&GrateType3V.dgn
Friday, September 25, 2009 9:36 AM 79360 211-604016-02_Frame&GrateType4.dgn
Friday, September 25, 2009 9:36 AM 93696 211-604021-02_BaseFrame&LidsType5.dgn
Friday, September 25, 2009 9:36 AM 95744 211-604026-02_Frame&GrateType6.dgn
Friday, September 25, 2009 9:36 AM 68608 211-604031-02_GrateType7.dgn
Friday, September 25, 2009 9:36 AM 62976 211-604036-02_GrateType8.dgn
Friday, September 25, 2009 9:36 AM 84992 211-604041-02_Frame&GrateType9.dgn
Friday, September 25, 2009 9:36 AM 86528 211-604046-02_Frame&GrateType10.dgn
Friday, September 25, 2009 9:36 AM 130560 211-604051-03_Frame&GrateType11.dgn
Friday, September 25, 2009 9:36 AM 133120 211-604056-03_Frame&GrateType11V.dgn
Friday, September 25, 2009 9:36 AM 93184 211-604061-02_Frame&GrateType12.dgn
Friday, September 25, 2009 9:36 AM 119296 211-604066-02_Frame&LidType15.dgn
Friday, September 25, 2009 9:36 AM 100352 211-604071-04_Frame&GrateType20.dgn
Friday, September 25, 2009 9:36 AM 129024 211-604076-04_Frame&GrateType21.dgn
Friday, September 25, 2009 9:36 AM 157184 211-604081-04_Frame&GrateType22.dgn
Friday, September 25, 2009 9:36 AM 157696 211-604086-02_Frame&GrateType23.dgn
Friday, September 25, 2009 9:36 AM 147968 211-604091-02_Frame&GrateType24.dgn
Friday, September 25, 2009 9:36 AM 168448 211-604101-01_MedianInletFor24inRCPipe.dgn
Friday, September 25, 2009 9:36 AM 159744 211-604106-01_MedianInletFor36inRCPipe.dgn
Friday, September 25, 2009 9:36 AM 168960 211-606001-04_ConcCurbTypeB&ComboConcC&G.dgn
Friday, September 25, 2009 9:36 AM 244224 211-606006-02_OutletsForConcC&G-TypeB-6.24.dgn
Friday, September 25, 2009 9:36 AM 214528 211-606101-04_TypeAGut-InlOutl&Entr.dgn
Friday, September 25, 2009 9:36 AM 118784 211-606106-04_OutlType1ForTypeAGut.dgn
Friday, September 25, 2009 9:36 AM 140288 211-606111-03_OutlType2ForTypeAGut.dgn
Friday, September 25, 2009 9:36 AM 166912 211-606201-02_TypeBGut-InlOutl&Entr.dgn
Friday, September 25, 2009 9:36 AM 115712 211-606206-03_OutlType1ForTypeBGut.dgn
Friday, September 25, 2009 9:36 AM 138240 211-606211-03_OutlType2ForTypeBGut.dgn
Friday, September 25, 2009 9:36 AM 210432 211-606301-04_PCCIslands&Medians.dgn
Friday, September 25, 2009 9:36 AM 92160 211-606306-03_CorrugatedPCCMedians.dgn
Friday, September 25, 2009 9:36 AM 114176 211-606401-01_PavedDitch.dgn
Friday, September 25, 2009 10:25 AM 271872 211-609001-05_BridgeApproachShldPvmt&Drain.dgn
Friday, September 25, 2009 10:25 AM 462336 211-609006-05_BridgeApproachPvmt(DrainDetail).dgn
Friday, September 25, 2009 10:25 AM 459776 211-610001-05_ShldInletWithCurb.dgn
Friday, September 25, 2009 9:36 AM 221184 211-630001-08_SteelPlateBeamGrdrail.dgn
Friday, September 25, 2009 9:36 AM 139264 211-630101-08_GuardrailMountedOnExCulv.dgn
Friday, September 25, 2009 9:36 AM 96256 211-630201-06_PCC-BitStb@SteelPlateBeamGrdRail.dgn
Friday, September 25, 2009 9:36 AM 92672 211-630301-05_ShldWidenForType1GrdrailTerms.dgn
Friday, September 25, 2009 10:25 AM 125952 211-631006-07_TrafBarTermType1B.dgn
Friday, September 25, 2009 10:25 AM 110592 211-631011-06_TrafBarTermType2.dgn
Friday, September 25, 2009 9:36 AM 161280 211-631026-05_TrafBarTermType5.dgn
Friday, September 25, 2009 10:25 AM 449536 211-631031-08_TrafBarTermType6.dgn
Friday, September 25, 2009 10:25 AM 248832 211-631032-05_TrafBarTermType6A.dgn
Friday, September 25, 2009 9:36 AM 188416 211-631033-03_TrafBarTermType6B.dgn
Friday, September 25, 2009 9:36 AM 126464 211-631036-05_TrafBarTermType8.dgn
Friday, September 25, 2009 9:36 AM 112640 211-631041-02_TrafBarTermType9.dgn
Friday, September 25, 2009 9:36 AM 107008 211-631046-04_TrafBarTermType10.dgn
Friday, September 25, 2009 9:36 AM 105984 211-631051-02_TrafBarTermType11.dgn
Friday, September 25, 2009 9:36 AM 99840 211-631056-02_TrafBarTermType12.dgn
Friday, September 25, 2009 9:36 AM 157696 211-635001-01_Delineators.dgn
Friday, September 25, 2009 9:36 AM 85504 211-635006-03_Reflector&TermMrkrPlacemnt.dgn
Friday, September 25, 2009 9:36 AM 160768 211-635011-02_ReflectorMrkr&MountDetails.dgn
Friday, September 25, 2009 9:36 AM 251904 211-636001-02_CableRdGrd-SingleStrand.dgn
Friday, September 25, 2009 9:36 AM 140288 211-637001-04_ConcBarrierDblFace32in.dgn
Friday, September 25, 2009 9:36 AM 145408 211-637006-02_ConcBarrierDblFace42in.dgn
Friday, September 25, 2009 9:36 AM 85504 211-638001-02_GlareScreenBlades.dgn
Friday, September 25, 2009 9:36 AM 80896 211-638101-02_ConcGlareScreen.dgn
Friday, September 25, 2009 9:36 AM 140288 211-639001-02_Sightscrn-PrecstPrestressConcPanelWall.dgn
Friday, September 25, 2009 9:36 AM 208384 211-640001-01_Sightscrn-ChainLinkFence.dgn
Friday, September 25, 2009 9:36 AM 111616 211-641001-01_Sightscrn-CedarStckadeFenceTypeS.dgn
Friday, September 25, 2009 9:36 AM 94720 211-641006-01_Sightscrn-WoodPlankFenceTypeP.dgn
Friday, September 25, 2009 9:36 AM 130048 211-642001-01_ShldRumbleStrips.dgn
Friday, September 25, 2009 9:36 AM 402432 211-664001-02_ChainLinkFence.dgn
Friday, September 25, 2009 9:36 AM 398336 211-665001-02_WovenWireFence.dgn
Friday, September 25, 2009 9:36 AM 86528 211-666001-01_ROWMrkrs.dgn
Friday, September 25, 2009 9:36 AM 86528 211-667001-01_DrainageMrkrs.dgn
Friday, September 25, 2009 9:36 AM 126976 211-667101-01_PermanentSurveyMrkrs.dgn
Friday, September 25, 2009 9:36 AM 66048 211-668001-01_MethOfResetting-USGS&NGS-Benchmarks.dgn
Friday, September 25, 2009 9:36 AM 55808 211-701001-02_OffRdOp-2L2W-15ftMinFromEOP-45MPH+.dgn
Friday, September 25, 2009 9:36 AM 61440 211-701006-03_OffRdOp-2L2W-15ftToEOP-45MPH+.dgn
Friday, September 25, 2009 9:36 AM 64512 211-701011-02_OffRdMovingOp-2L2W-DayOnly-45MPH+.dgn
Friday, September 25, 2009 9:36 AM 62464 211-701101-02_OffRdOp-MultiLn-LessThan15ftToEOP.dgn
Friday, September 25, 2009 9:36 AM 56832 211-701106-02_OffRdOp-MultiLn-MoreThan15ftAway.dgn
Friday, September 25, 2009 9:36 AM 65536 211-701201-03_LnClosure2L2W-DayOnly.dgn
Friday, September 25, 2009 9:36 AM 64000 211-701206-02_LnClosure2L2W-NightOnly45MPH+.dgn
Friday, September 25, 2009 9:36 AM 65536 211-701301-03_LnClosure2L2W-ShortTimeOp.dgn
Friday, September 25, 2009 9:36 AM 65024 211-701306-02_LnClosure2L2W-SlowMoveOpDayOnly45MPH+.dgn
Friday, September 25, 2009 9:36 AM 71680 211-701311-03_LnClosure2L2W-MovingOpDayOnly.dgn
Friday, September 25, 2009 9:36 AM 256512 211-701316-04_LnClosure2L2W-BridgeRepair45MPH+.dgn
Friday, September 25, 2009 9:36 AM 196096 211-701321-10 LnClosure2L2W-BridgeRepair+Barrier.dgn
Friday, September 25, 2009 9:36 AM 72704 211-701326-03_LnClosure2L2W-PvmtWidening45MPH+.dgn
Friday, September 25, 2009 9:36 AM 88064 211-701331-03_LnClosure2L2W+RunAround45MPH+.dgn
Friday, September 25, 2009 9:36 AM 74240 211-701336-05_LnClosure2L2W-WorkAreasInSeries45MPH+.dgn
Friday, September 25, 2009 10:25 AM 72192 211-701400-04_ApprchToLnClosure-FrwayExpway.dgn
Friday, September 25, 2009 9:36 AM 84480 211-701401-05_LnClosureFrwayExpway.dgn
Friday, September 25, 2009 9:36 AM 109056 211-701402-07_LnClosureFrwayExpway+Barrier.dgn
Friday, September 25, 2009 9:36 AM 85504 211-701406-05_LnClosureFrwayExpway-DayOpOnly.dgn
Friday, September 25, 2009 10:25 AM 117248 211-701411-06_LnClosureMultiLn-EntrOrExitRamp45MPH+.dgn
Friday, September 25, 2009 9:36 AM 101888 211-701416-06_LnClosureFrwayExpway+Crossover&Barrier.dgn
Friday, September 25, 2009 9:36 AM 90112 211-701421-02_LnClosureMultiLn-DayOpOnly45-55MPH.dgn
Friday, September 25, 2009 9:36 AM 87040 211-701422-02_LnClosureMultiLn-45-55MPH.dgn
Friday, September 25, 2009 9:36 AM 141312 211-701423-03_LnClosureMultiln+Barrier45-55MPH.dgn
Friday, September 25, 2009 9:36 AM 81920 211-701426-03_LnClosureMultiLn-IntermittantOrMovingOp45MPH+.dgn
Friday, September 25, 2009 9:36 AM 99328 211-701431-05_LnClosureMultiLnUndivided+Crossover45-55MPH.dgn
Friday, September 25, 2009 9:36 AM 92160 211-701446-01_TwoLnClosure-FrwayExpway.dgn
Friday, September 25, 2009 10:25 AM 100352 211-701451-01_RampClosureFreewayExp.dgn
Friday, September 25, 2009 9:36 AM 86016 211-701456_PartialExitRampClosureFrewayExp.dgn
Friday, September 25, 2009 9:36 AM 76288 211-701501-05_UrbanLnClosure2L2W-Undivided.dgn
Friday, September 25, 2009 9:36 AM 111104 211-701502-03_UrbanLnClosure2L2W+BidirectLeftTurnLn.dgn
Friday, September 25, 2009 9:36 AM 108544 211-701601-06_UrbanLnClosureMultiLn1W2W+NontrvsableMed.dgn
Friday, September 25, 2009 9:36 AM 182784 211-701602-04_UrbanLnClosureMultiLn2W+BidirectLeftTurnLn.dgn
Friday, September 25, 2009 9:36 AM 122880 211-701606-06_UrbanLnClosureMultiLn2W+MountableMed.dgn
Friday, September 25, 2009 9:36 AM 89088 211-701701-06_UrbanLnClosureMultiLnIntersection.dgn
Friday, September 25, 2009 9:36 AM 70656 211-701801-04_LnClosureMultiLn1W2W+CrosswalkOrSWClosure.dgn
Friday, September 25, 2009 9:36 AM 228352 211-701901-01_TrafCntrlDevices.dgn
Friday, September 25, 2009 10:25 AM 221184 211-704001-06_TempConcBarrier.dgn
Friday, September 25, 2009 9:36 AM 88576 211-720001-01_SignPanelMountDetails.dgn
Friday, September 25, 2009 9:36 AM 153600 211-720006-02_SignPanelErectDetails.dgn
Friday, September 25, 2009 9:36 AM 73728 211-720011-01_MetalPostsForSignsMrkrs&Delineators.dgn
Friday, September 25, 2009 9:36 AM 73728 211-720016-02_MastArmMountedStNameSigns.dgn
Friday, September 25, 2009 9:36 AM 179712 211-720021-02_SignPanels-ExtrudedAlumType.dgn
Friday, September 25, 2009 9:36 AM 153600 211-728001-01_TelescopingSteelSignSupport.dgn
Friday, September 25, 2009 9:36 AM 82432 211-729001-01_AppOfTypesA&BPosts.dgn
Friday, September 25, 2009 9:36 AM 153600 211-731001-01_BaseForTelescopingSteelSignSupport.dgn
Friday, September 25, 2009 9:36 AM 168448 211-780001-02_TypicalPvmtMrkings.dgn
Friday, September 25, 2009 9:36 AM 98304 211-781001-03_TypicalAppRaisedReflcPvmtMrkrs.dgn
Friday, September 25, 2009 9:37 AM 76800 211-805001-01_ElecSrvcInstallDetails.dgn
Friday, September 25, 2009 9:37 AM 105472 211-814001-02_Handholes.dgn
Friday, September 25, 2009 9:37 AM 176640 211-814006-02_DoubleHandholes.dgn
Friday, September 25, 2009 10:25 AM 148992 211-825001_LightingControllerPoleMount240V.dgn
Friday, September 25, 2009 10:25 AM 151040 211-825006_LightingControllerPoleMount480V.dgn
Friday, September 25, 2009 10:25 AM 108544 211-825011_LightingControllerPedestalMount240V.dgn
Friday, September 25, 2009 10:25 AM 108544 211-825016_LightingControllerPedestalMount480V.dgn
Friday, September 25, 2009 10:33 AM 129536 211-825021_LightingControllerBaseMount240V.dgn
Friday, September 25, 2009 10:25 AM 129536 211-825026_LightingControllerBaseMount480V.dgn
Friday, September 25, 2009 10:25 AM 91136 211-836001_LightPoleFoundation.dgn
Friday, September 25, 2009 10:25 AM 223744 211-837001_LightTowerFoundation.dgn
Friday, September 25, 2009 9:37 AM 107520 211-857001-01_StdPhaseDesignationDiagrams&PhaseSeq.dgn
Friday, September 25, 2009 9:37 AM 58368 211-857006-01_SupervisedRRInterconnectCircuit-.dgn
Friday, September 25, 2009 9:37 AM 83968 211-862001-01_UPS.dgn
Friday, September 25, 2009 9:37 AM 744448 211-873001-02_TrafSignalGround&Bond.dgn
Friday, September 25, 2009 9:37 AM 169984 211-876001-01_PedestrianPushButtonPost.dgn
Friday, September 25, 2009 9:37 AM 87552 211-877001-04_SteelMastArmAssembly&Pole16'thre55'.dgn
Friday, September 25, 2009 9:37 AM 212992 211-877002-01_SteelMastArmAssembly&Pole56'thru75'.dgn
Friday, September 25, 2009 9:37 AM 103424 211-877006-03_SteelMastArmAssembly&Pole+DualMastArms.dgn
Friday, September 25, 2009 9:37 AM 103424 211-877011-04_SteelComboMastArmAssembly&Pole16'thru55'.dgn
Friday, September 25, 2009 9:37 AM 139264 211-877012-01_SteelComboMastArmAssembly&Pole56'thru75'.dgn
Friday, September 25, 2009 10:25 AM 169984 211-878001-08_ConcreteFoundationDetails.dgn
Friday, September 25, 2009 9:37 AM 99840 211-880001-01_SpanWireMountSignals&FlashBeaconInstall.dgn
Friday, September 25, 2009 9:37 AM 79360 211-880006-01_TrfSignalMountDetails-Post&BracketMount.dgn
Friday, September 25, 2009 9:37 AM 151552 211-886001-01_DetectorLoopInstallations.dgn
Friday, September 25, 2009 9:37 AM 70144 211-886006-01_TypicalLayoutsForDetectionLoops.dgn
Friday, September 25, 2009 9:37 AM 216064 211-BLR10-6_PCCPvmtSpecial-NonReinf.dgn
Friday, September 25, 2009 9:37 AM 197632 211-BLR14-10_PCCPvmt-NonReinf.dgn
Friday, September 25, 2009 9:37 AM 288256 211-BLR17-4_TrafCntrlDevices-DayLaborConstr.dgn
Friday, September 25, 2009 9:37 AM 89600 211-BLR18-5_TrafCntrlDevices-DayLaborMaint.dgn
Friday, September 25, 2009 9:37 AM 244736 211-BLR20-6_TrafBarrierTermType5R.dgn
Friday, September 25, 2009 9:37 AM 92160 211-BLR21-8_TypAppTrafCntrlDevices-ConstrOnRuralLocalHwys.dgn
Friday, September 25, 2009 9:37 AM 92672 211-BLR22-6_TypAppTrafCntrlDevices-ConstrOnRuralLocalHwys(2L2W-RdClsdToThruTraf).dgn
Friday, September 25, 2009 9:37 AM 236544 211-BLR23-3_TrafBarrierTermType1.dgn
Friday, September 25, 2009 9:37 AM 124416 211-BLR24-2_MailboxTurn-LocalRds.dgn
Friday, September 25, 2009 9:37 AM 61440 211-BLR25-1_Type1ABarrForNonNHSRts.dgn
Friday, September 25, 2009 10:25 AM 357376 211-BLR26-2_SteelPlateBeemGR27.5inchHt.dgn
Friday, September 25, 2009 9:37 AM 304640 211-BLR27-1_TrafBarTermType5A.dgn
Friday, July 08, 2011 10:32 AM <dir> _vti_cnf